TimeCDT,TemperatureF,Dew PointF,Humidity,Sea Level PressureIn,VisibilityMPH,Wind Direction,Wind SpeedMPH,Gust SpeedMPH,PrecipitationIn,Events,Conditions,WindDirDegrees,DateUTC
12:53 AM,19.0,12.9,77,30.32,10.0,North,6.9,-,N/A,,Clear,350,2013-04-01 05:53:00
1:53 AM,17.1,10.9,77,30.33,10.0,NNW,6.9,-,N/A,,Clear,340,2013-04-01 06:53:00
2:53 AM,15.1,10.0,80,30.34,10.0,NW,6.9,-,N/A,,Clear,320,2013-04-01 07:53:00
3:53 AM,15.1,9.0,77,30.34,10.0,NW,6.9,-,N/A,,Clear,320,2013-04-01 08:53:00
4:53 AM,16.0,10.0,77,30.34,10.0,NNW,9.2,-,N/A,,Clear,340,2013-04-01 09:53:00
5:53 AM,14.0,9.0,80,30.36,10.0,NW,5.8,-,N/A,,Clear,310,2013-04-01 10:53:00
6:53 AM,14.0,9.0,80,30.38,10.0,WNW,5.8,-,N/A,,Clear,290,2013-04-01 11:53:00
7:53 AM,16.0,10.0,77,30.39,10.0,WNW,6.9,-,N/A,,Clear,300,2013-04-01 12:53:00
8:53 AM,19.9,12.0,71,30.40,10.0,NNW,9.2,-,N/A,,Clear,340,2013-04-01 13:53:00
9:53 AM,24.1,14.0,65,30.40,10.0,NNW,4.6,-,N/A,,Clear,340,2013-04-01 14:53:00
10:53 AM,26.1,12.0,55,30.40,10.0,NW,3.5,-,N/A,,Partly Cloudy,310,2013-04-01 15:53:00
11:53 AM,27.0,12.0,53,30.40,10.0,Variable,3.5,-,N/A,,Clear,0,2013-04-01 16:53:00
12:53 PM,28.9,12.0,49,30.40,10.0,Variable,3.5,-,N/A,,Clear,0,2013-04-01 17:53:00
1:53 PM,30.9,12.0,46,30.38,10.0,Calm,Calm,-,N/A,,Clear,0,2013-04-01 18:53:00
2:53 PM,33.1,12.9,43,30.38,10.0,Variable,4.6,-,N/A,,Clear,0,2013-04-01 19:53:00
3:53 PM,34.0,12.9,42,30.36,10.0,Variable,3.5,-,N/A,,Clear,0,2013-04-01 20:53:00
4:53 PM,34.0,12.9,42,30.34,10.0,NW,5.8,-,N/A,,Clear,320,2013-04-01 21:53:00
5:53 PM,34.0,15.1,46,30.33,10.0,Variable,4.6,-,N/A,,Clear,0,2013-04-01 22:53:00
6:53 PM,32.0,16.0,52,30.33,10.0,ENE,6.9,-,N/A,,Clear,60,2013-04-01 23:53:00
7:53 PM,28.9,18.0,64,30.33,10.0,East,6.9,-,N/A,,Clear,100,2013-04-02 00:53:00
8:53 PM,25.0,17.1,72,30.33,10.0,East,5.8,-,N/A,,Clear,100,2013-04-02 01:53:00
9:53 PM,24.1,18.0,77,30.34,10.0,ESE,3.5,-,N/A,,Clear,110,2013-04-02 02:53:00
10:53 PM,24.1,17.1,75,30.33,10.0,East,4.6,-,N/A,,Clear,100,2013-04-02 03:53:00
11:53 PM,21.0,17.1,85,30.33,10.0,SSE,3.5,-,N/A,,Clear,150,2013-04-02 04:53:00